This is the latest recevied weather packets stored in our database for station/object KB1WCR. If no packets are shown the sender has not sent any weather packets the latest 10 day(s).
| Time | Temp. | Humidity | Pressure | Rain* | Wind** | Luminosity | Snow |
|---|---|---|---|---|---|---|---|
| 1788038010 | 23.33° C | 60% | 1020.3 hPa | 0 mm | - | 210 W/m² | - |
| 1788037704 | 23.33° C | 58% | 1020.1 hPa | 0 mm | - | 186 W/m² | - |
| 1788037399 | 23.33° C | 59% | 1020.3 hPa | 0 mm | - | 227 W/m² | - |
| 1788037098 | 23.33° C | 58% | 1020.2 hPa | 0 mm | - | 244 W/m² | - |
| 1788036794 | 23.89° C | 57% | 1020.1 hPa | 0 mm | - | 267 W/m² | - |
| 1788036491 | 24.44° C | 57% | 1020.1 hPa | 0 mm | - | 284 W/m² | - |
| 1788036186 | 23.89° C | 58% | 1020.1 hPa | 0 mm | - | 299 W/m² | - |
| 1788035886 | 23.89° C | 57% | 1020.1 hPa | 0 mm | - | 315 W/m² | - |
| 1788035581 | 23.89° C | 57% | 1020.2 hPa | 0 mm | - | 327 W/m² | - |
| 1788035276 | 25° C | 55% | 1020 hPa | 0 mm | - | 340 W/m² | - |
| 1788034971 | 24.44° C | 57% | 1020.1 hPa | 0 mm | - | 355 W/m² | - |
| 1788034668 | 25° C | 55% | 1020 hPa | 0 mm | - | 369 W/m² | - |
| 1788034363 | 25° C | 53% | 1020 hPa | 0 mm | - | 384 W/m² | - |
| 1788034058 | 26.11° C | 51% | 1020 hPa | 0 mm | - | 397 W/m² | - |
| 1788033757 | 25.56° C | 48% | 1020.2 hPa | 0 mm | - | 412 W/m² | - |
| 1788033451 | 25° C | 47% | 1020.1 hPa | 0 mm | - | 424 W/m² | - |
| 1788033146 | 25° C | 47% | 1020.3 hPa | 0 mm | - | 436 W/m² | - |
| 1788032841 | 25.56° C | 44% | 1020.2 hPa | 0 mm | - | 449 W/m² | - |
| 1788032541 | 25.56° C | 44% | 1020.3 hPa | 0 mm | - | 463 W/m² | - |
| 1788032237 | 25.56° C | 47% | 1020.3 hPa | 0 mm | - | 474 W/m² | - |
| 1788031933 | 25.56° C | 45% | 1020.3 hPa | 0 mm | - | 487 W/m² | - |
| 1788031632 | 25° C | 47% | 1020.4 hPa | 0 mm | - | 499 W/m² | - |
| 1788031327 | 25.56° C | 45% | 1020.6 hPa | 0 mm | - | 514 W/m² | - |
| 1788031027 | 25.56° C | 46% | 1020.6 hPa | 0 mm | - | 526 W/m² | - |
| 1788030721 | 25.56° C | 44% | 1020.8 hPa | 0 mm | - | 532 W/m² | - |
* Rain latest hour (hover to see other rain measurements)
** Current wind speed in m/s (hover to see current wind gust speed)